Current Weather Conditions: station 66023

sailwx.info

Wind from 200 at 15 knots

Air temperature 5.2° C
Water temperature 6.9° C

Last reported at 2019-Dec-12 19:00 UTC.
Time now 2019-Dec-12 19:36 UTC

Location: N 54°36' E 011°12'.
View on Google Maps.

See reports from other nearby stations

  
Tides and Currents Weather Stations Pressure Air Temp Water Temp Dewpoint Dewpoint Depression Visibility Wind Speed Wind Dir Waves Ship Positions
date/time (UTC)wind fromknots sea level pressurealtimeterstation pressurevisibilityair tempwater tempwave heightnotes
2019-Dec-12 19:00 200 15 5.2 6.9
2019-Dec-12 18:00 200 13 5.4 6.9
2019-Dec-12 17:00 210 13 5.4 7.0
2019-Dec-12 16:00 200 14 5.4 6.9
2019-Dec-12 15:00 210 13 5.7 6.9
2019-Dec-12 14:00 200 13 5.5 6.9
2019-Dec-12 13:00 200 13 5.5 6.9
2019-Dec-12 12:00 210 15 5.4 7.2
2019-Dec-12 11:00 210 14 5.2 7.3
2019-Dec-12 10:00 210 12 5.0 7.3
2019-Dec-12 09:00 230 14 5.4 7.4
2019-Dec-12 08:00 230 17 5.5 7.4
2019-Dec-12 07:00 240 18 5.4 7.3
2019-Dec-12 06:00 250 19 5.5 7.2
2019-Dec-12 05:00 240 13 5.4 7.2
2019-Dec-12 04:00 220 9 4.9 7.3
2019-Dec-12 03:00 220 9 4.7 7.3
2019-Dec-12 02:00 220 11 4.7 7.3
2019-Dec-12 01:00 210 8 4.7 7.4
2019-Dec-12 00:00 210 8 4.7 7.4
2019-Dec-11 23:00 200 8 4.7 7.1
2019-Dec-11 22:00 200 8 4.9 7.1
2019-Dec-11 21:00 200 8 5.0 7.1
2019-Dec-11 20:00 200 9 5.2 7.2
2019-Dec-11 19:00 200 9 5.2 7.2
2019-Dec-11 18:00 200 9 5.2 7.3
2019-Dec-11 17:00 190 8 5.4 7.3
2019-Dec-11 16:00 200 9 5.4 7.4
2019-Dec-11 15:00 200 9 5.4 7.4
2019-Dec-11 14:00 200 12 5.2 7.4
2019-Dec-11 13:00 210 13 5.4 7.4
2019-Dec-11 12:00 220 18 5.4 7.4
2019-Dec-11 11:00 220 19 5.5 7.4
2019-Dec-11 10:00 220 17 5.2 7.4
2019-Dec-11 09:00 210 15 5.0 7.4
2019-Dec-11 08:00 200 17 5.2 7.4
2019-Dec-11 07:00 210 21 5.5 7.3
2019-Dec-11 06:00 210 24 5.5 7.4
2019-Dec-11 05:00 200 22 5.4 7.3
2019-Dec-11 04:00 200 26 5.2 7.3
2019-Dec-11 03:00 200 27 5.4 7.3
2019-Dec-11 02:00 200 27 5.4 7.3
2019-Dec-11 01:00 190 27 5.0 7.3
2019-Dec-11 00:00 190 29 5.2 7.2
2019-Dec-10 23:00 190 28 4.9 7.2
2019-Dec-10 22:00 190 27 4.9 7.3
2019-Dec-10 21:00 190 26 4.7 7.3
2019-Dec-10 20:00 190 26 4.7 7.2
2019-Dec-10 19:00 190 25 4.7 7.3